sat.trackr.live / text

‹ back to catalog

STARLINK-1131

NORAD 45047 · 2020-006D

PAYLOAD ACTIVE UNKNOWN

§ Identity

Operator
Country
US
Launch date
2020-01-29
Launch site
AFETR
Launch vehicle
Mass (kg)
RCS (m²)

Purposes: comms

External: N2YO · Heavens-Above · Gunter

§ Orbital elements

Epoch: 2026-09-20T01:22:04.641024Z

Period
91.91 min
Inclination
53.1490°
Eccentricity
0.0002905
Mean motion
15.66789347 rev/d
Perigee alt
366.1 km
Apogee alt
370.1 km
Semi-major
6,746.2 km
B*
3.5766e-4
RAAN
68.8898°
Arg perigee
143.2416°
Mean anomaly
216.8800°
Rev number
36,671

§ Raw data

STARLINK-11311 45047U 20006D   26263.05699816  .00038061  00000+0  35766-3 0  99982 45047  53.1490  68.8898 0002905 143.2416 216.8800 15.66789347366712

JSON: /api/v1/satellites/45047 · /tle

For live sub-satellite position, see the globe view (requires WebGL).

§ Visibility from observer

Set your observer location to see the next 7 days of passes ≥ 10°. The values pass through the URL so the page stays shareable.

No JS? Fill the form by hand. The geolocation button needs JavaScript.